Location: Columbia, SC
(34.0000°N, 81.0300°W)
Time: 09:58:20
(UTC-04:00)

Tiangong 1 - Visible Passes

Search period start: 29 April 2016 00:00
Search period end: 09 May 2016 00:00
Orbit: 375 x 391 km, 42.8° (Epoch: 29 April)

Date Brightness Start Highest point End Pass type
(mag) Time Alt. Az. Time Alt. Az. Time Alt. Az.
29 Apr 3.6 04:30:47 16° N 04:30:57 16° N 04:33:01 10° NE visible
29 Apr 3.4 06:05:49 10° NW 06:08:21 22° NNE 06:10:53 10° ENE visible
30 Apr 3.7 05:05:50 10° NW 05:08:04 18° N 05:10:18 10° NE visible
01 May 4.0 04:08:13 15° NNE 04:08:13 15° NNE 04:09:45 10° NE visible
01 May 2.9 05:42:11 10° NW 05:45:01 31° NNE 05:47:50 10° E visible
02 May 3.4 04:43:10 15° NNW 04:44:43 22° NNE 04:47:14 10° ENE visible
03 May 4.5 03:46:05 12° NE 03:46:05 12° NE 03:46:32 10° NE visible
03 May 1.9 05:18:27 10° NW 05:21:29 49° NNE 05:24:31 10° ESE visible
04 May 3.0 04:21:27 29° NNE 04:21:27 29° NNE 04:23:59 10° E visible
04 May 1.5 05:55:00 10° WNW 05:57:56 40° SW 06:00:53 10° SE visible
05 May 0.9 04:57:13 57° WNW 04:57:46 87° SSW 05:00:52 10° ESE visible
06 May 2.4 05:33:25 19° SW 05:34:00 20° SW 05:36:24 10° SSE visible
06 May 3.4 22:02:28 10° SW 22:03:16 16° SW 22:03:16 16° SW visible
07 May 1.9 21:02:33 10° SSW 21:05:21 30° SE 21:07:32 14° E visible
07 May 3.9 22:39:04 10° W 22:39:48 15° W 22:39:48 15° W visible
08 May 1.4 21:38:28 10° WSW 21:41:35 65° NNW 21:43:33 20° NE visible
